Location: Unspecified
(0.0000°N, 0.0000°E)
Time: 09:08:13
(UTC+01:00)

Cosmos 2369 Rocket - Visible Passes

Search period start: 24 March 2017 00:00
Search period end: 03 April 2017 01:00
Orbit: 830 x 851 km, 71.0° (Epoch: 22 March)

Date Brightness Start Highest point End Pass type
(mag) Time Alt. Az. Time Alt. Az. Time Alt. Az.
26 Mar 4.2 21:25:09 10° SSE 21:25:50 13° SSE 21:25:50 13° SSE visible
27 Mar 3.6 21:10:01 10° SSE 21:12:35 19° SE 21:12:35 19° SE visible
27 Mar 4.7 22:53:23 10° SW 22:54:30 15° WSW 22:54:30 15° WSW visible
28 Mar 3.4 20:54:53 10° SSE 20:58:57 20° ESE 20:59:57 19° E visible
28 Mar 4.0 22:37:55 10° SW 22:41:56 27° W 22:41:56 27° W visible
29 Mar 3.5 20:39:46 10° SSE 20:43:38 19° ESE 20:47:26 10° ENE visible
29 Mar 3.9 22:22:27 10° SW 22:27:22 30° WNW 22:30:58 16° NNW visible
30 Mar 3.6 20:24:43 10° SE 20:28:18 17° ESE 20:31:52 10° ENE visible
30 Mar 3.8 22:07:01 10° SW 22:12:02 33° WNW 22:17:02 10° NNW visible
31 Mar 3.7 21:51:35 10° SW 21:56:43 35° WNW 22:01:49 10° N visible
01 Apr 3.6 21:36:10 10° SW 21:41:24 38° WNW 21:46:35 10° N visible
02 Apr 3.5 21:20:46 10° SW 21:26:05 41° WNW 21:31:21 10° N visible
